When you browse on this site, cookies collect data to enhance your experience and personalize the content and advertising you see.
Visit our Privacy Policy to learn more. By continuing to use the site, you agree to this use of cookies and data.
  • In United Kingdom
  • List of Countries
  • For 7 days
  • Water Temperature
  • Satellite Maps
  • Weather Map
  • Weather Widgets
  • user-avatar
    Login

    Hourly Weather San Isidro

    Today, 21 April, Sunday

    Time Temperature Precipitation Wind Pressure Humidity
    00:00 +24°C° 0 mm 1 mps 698 mmHg 83%
    01:00 +24°C° 0 mm 1 mps 698 mmHg 81%
    02:00 +24°C° 0 mm 1 mps 698 mmHg 79%
    03:00 +24°C° 0 mm 1 mps 697 mmHg 78%
    04:00 +24°C° 0 mm 1 mps 697 mmHg 77%
    05:00 +24°C° 0 mm 1 mps 698 mmHg 77%
    06:00 +24°C° 0 mm 1 mps 698 mmHg 76%
    07:00 +26°C° 0 mm 1 mps 698 mmHg 73%
    08:00 +27°C° 0 mm 1 mps 699 mmHg 70%
    09:00 +29°C° 0 mm 1 mps 700 mmHg 66%
    10:00 +29°C° 0.3 mm 1 mps 700 mmHg 67%
    11:00 +29°C° 0.3 mm 1 mps 699 mmHg 68%
    12:00 +29°C° 0.3 mm 1 mps 699 mmHg 68%
    13:00 +29°C° 1 mm 1 mps 699 mmHg 71%
    14:00 +28°C° 1 mm 1 mps 698 mmHg 75%
    15:00 +27°C° 1 mm 1 mps 697 mmHg 78%
    16:00 +27°C° 1 mm 1 mps 697 mmHg 81%
    17:00 +26°C° 1 mm 1 mps 697 mmHg 85%
    18:00 +25°C° 1 mm 1 mps 697 mmHg 88%
    19:00 +25°C° 0.1 mm 1 mps 698 mmHg 88%
    20:00 +25°C° 0.1 mm 1 mps 698 mmHg 87%
    21:00 +25°C° 0.1 mm 1 mps 699 mmHg 87%
    22:00 +25°C° 0 mm 1 mps 699 mmHg 85%
    23:00 +24°C° 0 mm 1 mps 699 mmHg 84%

    Tomorrow, 22 April, Monday

    Time Temperature Precipitation Wind Pressure Humidity
    00:00 +24°C° 0 mm 1 mps 698 mmHg 83%
    01:00 +24°C° 0 mm 1 mps 698 mmHg 83%
    02:00 +24°C° 0 mm 1 mps 697 mmHg 82%
    03:00 +24°C° 0 mm 1 mps 697 mmHg 82%
    04:00 +24°C° 0 mm 1 mps 697 mmHg 81%
    05:00 +24°C° 0 mm 1 mps 697 mmHg 81%
    06:00 +24°C° 0 mm 1 mps 698 mmHg 80%
    07:00 +26°C° 0 mm 1 mps 698 mmHg 75%
    08:00 +28°C° 0 mm 1 mps 699 mmHg 70%
    09:00 +30°C° 0 mm 1 mps 700 mmHg 64%
    10:00 +29°C° 0.4 mm 1 mps 699 mmHg 67%
    11:00 +29°C° 0.4 mm 1 mps 699 mmHg 70%
    12:00 +29°C° 0.4 mm 1 mps 698 mmHg 73%
    13:00 +28°C° 0.9 mm 1 mps 698 mmHg 76%
    14:00 +28°C° 0.9 mm 1 mps 697 mmHg 79%
    15:00 +27°C° 0.9 mm 1 mps 696 mmHg 82%
    16:00 +26°C° 1 mm 1 mps 696 mmHg 85%
    17:00 +26°C° 1 mm 1 mps 697 mmHg 87%
    18:00 +25°C° 1 mm 1 mps 697 mmHg 90%
    19:00 +25°C° 0.2 mm 1 mps 697 mmHg 90%
    20:00 +23°C° 0.2 mm 0 mps 698 mmHg 90%
    21:00 +23°C° 0.2 mm 0 mps 699 mmHg 90%
    22:00 +22°C° 0 mm 0 mps 698 mmHg 89%
    23:00 +22°C° 0 mm 0 mps 698 mmHg 88%

    Day after tomorrow, 23 April, Tuesday

    Time Temperature Precipitation Wind Pressure Humidity
    00:00 +24°C° 0 mm 1 mps 698 mmHg 87%
    01:00 +23°C° 0 mm 1 mps 698 mmHg 87%
    02:00 +23°C° 0 mm 1 mps 697 mmHg 86%
    03:00 +23°C° 0 mm 1 mps 697 mmHg 85%
    04:00 +23°C° 0 mm 1 mps 697 mmHg 85%
    05:00 +23°C° 0 mm 1 mps 697 mmHg 84%
    06:00 +23°C° 0 mm 1 mps 697 mmHg 83%
    07:00 +25°C° 0 mm 1 mps 698 mmHg 75%
    08:00 +28°C° 0 mm 1 mps 699 mmHg 67%
    09:00 +30°C° 0 mm 1 mps 699 mmHg 59%
    10:00 +31°C° 0 mm 1 mps 699 mmHg 56%
    11:00 +32°C° 0 mm 1 mps 699 mmHg 53%
    12:00 +34°C° 0 mm 2 mps 698 mmHg 50%
    13:00 +31°C° 0.4 mm 1 mps 698 mmHg 57%
    14:00 +30°C° 0.4 mm 1 mps 697 mmHg 63%
    15:00 +28°C° 0.4 mm 1 mps 696 mmHg 70%
    16:00 +27°C° 0.4 mm 1 mps 696 mmHg 76%
    17:00 +26°C° 0.4 mm 1 mps 697 mmHg 82%
    18:00 +25°C° 0.4 mm 1 mps 697 mmHg 88%
    19:00 +23°C° 0.1 mm 0 mps 697 mmHg 88%
    20:00 +23°C° 0.1 mm 0 mps 698 mmHg 88%
    21:00 +23°C° 0.1 mm 0 mps 698 mmHg 89%
    22:00 +22°C° 0 mm 0 mps 698 mmHg 89%
    23:00 +22°C° 0 mm 0 mps 698 mmHg 88%

    24 April, Wednesday

    Time Temperature Precipitation Wind Pressure Humidity
    00:00 +22°C° 0 mm 0 mps 697 mmHg 88%
    01:00 +21°C° 0 mm 0 mps 697 mmHg 85%
    02:00 +23°C° 0 mm 1 mps 697 mmHg 81%
    03:00 +22°C° 0 mm 1 mps 696 mmHg 78%
    04:00 +22°C° 0 mm 1 mps 696 mmHg 73%
    05:00 +22°C° 0 mm 1 mps 697 mmHg 69%
    06:00 +22°C° 0 mm 1 mps 697 mmHg 64%
    07:00 +25°C° 0 mm 1 mps 698 mmHg 58%
    08:00 +28°C° 0 mm 1 mps 699 mmHg 53%
    09:00 +31°C° 0 mm 1 mps 700 mmHg 47%
    10:00 +32°C° 0 mm 1 mps 699 mmHg 47%
    11:00 +32°C° 0 mm 1 mps 699 mmHg 47%
    12:00 +34°C° 0 mm 2 mps 698 mmHg 47%
    13:00 +31°C° 0.1 mm 2 mps 697 mmHg 55%
    14:00 +30°C° 0.1 mm 1 mps 697 mmHg 63%
    15:00 +28°C° 0.1 mm 1 mps 696 mmHg 71%
    16:00 +27°C° 0.3 mm 1 mps 696 mmHg 76%
    17:00 +26°C° 0.3 mm 1 mps 696 mmHg 81%
    18:00 +24°C° 0.3 mm 0 mps 697 mmHg 85%
    19:00 +23°C° 0.1 mm 0 mps 697 mmHg 86%
    20:00 +23°C° 0.1 mm 0 mps 697 mmHg 87%
    21:00 +23°C° 0.1 mm 0 mps 698 mmHg 88%
    22:00 +23°C° 0 mm 0 mps 698 mmHg 88%
    23:00 +23°C° 0 mm 0 mps 697 mmHg 88%

    25 April, Thursday

    Time Temperature Precipitation Wind Pressure Humidity
    00:00 +22°C° 0 mm 0 mps 697 mmHg 89%
    01:00 +22°C° 0 mm 0 mps 697 mmHg 88%
    02:00 +22°C° 0 mm 0 mps 697 mmHg 88%
    03:00 +22°C° 0 mm 0 mps 696 mmHg 87%
    04:00 +22°C° 0 mm 0 mps 697 mmHg 85%
    05:00 +23°C° 0 mm 1 mps 697 mmHg 83%
    06:00 +23°C° 0 mm 1 mps 697 mmHg 81%
    07:00 +26°C° 0 mm 1 mps 698 mmHg 70%
    08:00 +28°C° 0 mm 1 mps 699 mmHg 60%
    09:00 +31°C° 0 mm 1 mps 700 mmHg 49%
    10:00 +32°C° 0 mm 1 mps 699 mmHg 49%
    11:00 +34°C° 0 mm 2 mps 699 mmHg 48%
    12:00 +34°C° 0 mm 2 mps 699 mmHg 48%
    13:00 +32°C° 0.1 mm 2 mps 698 mmHg 56%
    14:00 +30°C° 0.1 mm 1 mps 697 mmHg 65%
    15:00 +28°C° 0.1 mm 1 mps 696 mmHg 74%
    16:00 +27°C° 0.2 mm 1 mps 696 mmHg 78%
    17:00 +27°C° 0.2 mm 1 mps 697 mmHg 83%
    18:00 +24°C° 0.2 mm 0 mps 697 mmHg 88%
    19:00 +24°C° 0.1 mm 0 mps 697 mmHg 88%
    20:00 +24°C° 0.1 mm 0 mps 698 mmHg 89%
    21:00 +24°C° 0.1 mm 0 mps 698 mmHg 89%
    22:00 +23°C° 0.1 mm 0 mps 698 mmHg 89%
    23:00 +23°C° 0.1 mm 0 mps 697 mmHg 89%

    26 April, Friday

    Time Temperature Precipitation Wind Pressure Humidity
    00:00 +23°C° 0.1 mm 0 mps 697 mmHg 90%
    01:00 +23°C° 0 mm 0 mps 697 mmHg 89%
    02:00 +22°C° 0 mm 0 mps 697 mmHg 89%
    03:00 +22°C° 0 mm 0 mps 696 mmHg 89%
    04:00 +22°C° 0 mm 0 mps 697 mmHg 85%
    05:00 +23°C° 0 mm 1 mps 697 mmHg 81%
    06:00 +23°C° 0 mm 1 mps 697 mmHg 77%
    07:00 +26°C° 0 mm 1 mps 698 mmHg 68%
    08:00 +28°C° 0 mm 1 mps 699 mmHg 60%
    09:00 +31°C° 0 mm 1 mps 699 mmHg 51%
    10:00 +32°C° 0 mm 1 mps 699 mmHg 50%
    11:00 +34°C° 0 mm 2 mps 699 mmHg 49%
    12:00 +34°C° 0 mm 2 mps 698 mmHg 48%
    13:00 +32°C° 0.1 mm 2 mps 698 mmHg 51%
    14:00 +31°C° 0.1 mm 2 mps 697 mmHg 54%
    15:00 +30°C° 0.1 mm 2 mps 696 mmHg 58%
    16:00 +29°C° 0 mm 1 mps 696 mmHg 66%
    17:00 +27°C° 0 mm 1 mps 696 mmHg 75%
    18:00 +24°C° 0 mm 0 mps 696 mmHg 83%
    19:00 +23°C° 0 mm 0 mps 697 mmHg 84%
    20:00 +23°C° 0 mm 0 mps 697 mmHg 86%
    21:00 +22°C° 0 mm 0 mps 698 mmHg 87%
    22:00 +22°C° 0 mm 0 mps 697 mmHg 86%
    23:00 +22°C° 0 mm 0 mps 697 mmHg 85%
    Show more